204  
ASUS44 KMEG 241810  
RWRMEG  
MEMPHIS CWA HOURLY WEATHER ROUNDUP  
NATIONAL WEATHER SERVICE MEMPHIS TN  
1200 PM CST SAT FEB 24 2018  
   
..WEST TENNESSEE
 
 
 
CITY SKY/WX TMP DP RH WIND PRES REMARKS
 
MEMPHIS INTL CLOUDY 71 67 87 S18G25 29.91F  
6HR MIN TEMP: 66; 6HR MAX TEMP: 71; 6HR PCP: 0.02;  
 
NWS MEMPHIS N/A 69 N/A N/A MISG N/A  
JACKSON CLOUDY 71 66 84 S13 29.93F  
6HR MIN TEMP: 65; 6HR MAX TEMP: 71;  
 
COVINGTON CLOUDY 66 64 94 S22G31 29.91F FOG  
BOLIVAR CLOUDY 72 66 83 S12 29.94F  
LEXINGTON CLOUDY 70 64 83 S15G22 29.95F  
SELMER CLOUDY 72 66 83 S8G15 29.96F  
SAVANNAH CLOUDY 73 66 78 S12G20 29.97F  
DYERSBURG CLOUDY 67 66 97 S7 29.91F  
6HR MIN TEMP: 59; 6HR MAX TEMP: 69;  
 
UNION CITY CLOUDY 66 64 94 S12 29.89F FOG  
PARIS FOG 64 63 94 SW8G20 29.91F VSB 1/4  
 
   
..EASTERN ARKANSAS
 
 
 
CITY SKY/WX TMP DP RH WIND PRES REMARKS
 
JONESBORO LGT RAIN 66 66 100 SW12 29.86F  
6HR MIN TEMP: 57; 6HR MAX TEMP: 66; 6HR PCP: 0.26;  
 
WEST MEMPHIS LGT RAIN 67 67 100 S13 29.89F FOG  
6HR MIN TEMP: 63; 6HR MAX TEMP: 68; 6HR PCP: 0.37;  
 
BATESVILLE TSTM 62 61 96 E8 29.83F FOG  
6HR MIN TEMP: 53; 6HR MAX TEMP: 62; 6HR PCP: 0.18;  
 
NEWPORT TSTM 63 63 100 S14 29.85F FOG  
6HR MIN TEMP: 53; 6HR MAX TEMP: 63; 6HR PCP: 0.09;  
 
WALNUT RIDGE LGT RAIN 54 54 100 E6 29.86F VSB 1/4  
6HR MIN TEMP: 51; 6HR MAX TEMP: 55; 6HR PCP: 0.01;  
 
BLYTHEVILLE CLOUDY 68 65 90 S13 29.88F  
6HR MIN TEMP: 61; 6HR MAX TEMP: 68; 6HR PCP: 0.25;  
 
SEARCY TSTM 66 50 56 S13 29.84F  
6HR MIN TEMP: 53; 6HR MAX TEMP: 66; 6HR PCP: 0.35;  
 
STUTTGART CLOUDY 70 66 88 S18 29.86F  
6HR MIN TEMP: 62; 6HR MAX TEMP: 68; 6HR PCP: 0.06;  
 
PINE BLUFF PTSUNNY 71 67 87 S20 29.87F  
6HR MIN TEMP: 64; 6HR MAX TEMP: 71; 6HR PCP: 0.01;  
 
MONTICELLO CLOUDY 75 66 73 S16G24 29.90F  
6HR MIN TEMP: 68; 6HR MAX TEMP: 75; 6HR PCP: 0.01;  
 
   
..NORTH MISSISSIPPI
 
 
 
CITY SKY/WX TMP DP RH WIND PRES REMARKS
 
TUPELO PTSUNNY 75 64 68 S16G26 29.99F  
6HR MIN TEMP: 66; 6HR MAX TEMP: 75;  
 
OXFORD CLOUDY 72 64 78 S16G24 29.98F  
BATESVILLE N/A N/A N/A N/A MISG N/A  
OLIVE BRANCH CLOUDY 68 68 100 S12 29.92F  
TUNICA N/A 70 64 83 S16G22 29.93F  
CLARKSDALE PTSUNNY 75 73 94 S21 29.92F  
CORINTH CLOUDY 73 66 78 S16 29.97F  
GREENWOOD PTSUNNY 78 67 68 S21G26 29.96F  
6HR MIN TEMP: 67; 6HR MAX TEMP: 78;  
 
COLUMBUS FAIR 78 67 70 S16G23 30.01F  
6HR MIN TEMP: 67; 6HR MAX TEMP: 78;  
 
STARKVILLE FAIR 77 64 65 S12G18 30.02F  
 
   
..SOUTHEAST MISSOURI
 
 
 
CITY SKY/WX TMP DP RH WIND PRES REMARKS
 
KENNETT RAIN 66 66 100 S6G14 29.85F VSB 3/4  
MALDEN CLOUDY 55 54 94 NE5 29.88F FOG  
WEST PLAINS LGT RAIN 51 51 100 SE7 29.82F VSB 1/4  
6HR MIN TEMP: 48; 6HR MAX TEMP: 51; 6HR PCP: 0.03;  
 
POPLAR BLUFF CLOUDY 52 52 100 E5 29.86F  
6HR MIN TEMP: 49; 6HR MAX TEMP: 52; 6HR PCP: 0.12;  
 
CAPE GIRARDEAU CLOUDY 54 52 93 NE6 29.88F  
6HR MIN TEMP: 49; 6HR MAX TEMP: 54; 6HR PCP: 0.14;  
 
   
..NORTHWEST ALABAMA
 
 
 
CITY SKY/WX TMP DP RH WIND PRES REMARKS
 
MUSCLE SHOALS FAIR 75 62 64 S13 30.02F  
6HR MIN TEMP: 67; 6HR MAX TEMP: 76; 6HR PCP: TRACE;  
 
   
..MIDDLE TENNESSEE
 
 
 
CITY SKY/WX TMP DP RH WIND PRES REMARKS
 
NASHVILLE PTSUNNY 76 61 59 S16 29.99F  
6HR MIN TEMP: 62; 6HR MAX TEMP: 76; 6HR PCP: TRACE;  
 
CLARKSVILLE PTSUNNY 71 62 73 S15G23 29.94F  
6HR MIN TEMP: 58; 6HR MAX TEMP: 71; 6HR PCP: 0.01;  
 
COLUMBIA PTSUNNY 73 66 78 S20 29.98F  
 
   
..WESTERN KENTUCKY
 
 
 
CITY SKY/WX TMP DP RH WIND PRES REMARKS
 
PADUCAH LGT RAIN 56 54 93 CALM 29.89F FOG  
6HR MIN TEMP: 50; 6HR MAX TEMP: 56; 6HR PCP: 0.28;  
 
FORT CAMPBELL PTSUNNY 71 64 79 S13 29.93F  
6HR MIN TEMP: 57; 6HR MAX TEMP: 71; 6HR PCP: TRACE;  
 
   
..CENTRAL ARKANSAS
 
 
 
CITY SKY/WX TMP DP RH WIND PRES REMARKS
 
LITTLE ROCK CLOUDY 68 67 96 S14G23 29.82F  
6HR MIN TEMP: 55; 6HR MAX TEMP: 68; 6HR PCP: 0.49;  
 
SKY/WX REPORTED AS FAIR MEANS FEW OR NO CLOUDS BELOW  
12 THOUSAND FEET.  
 
 
 
CLICK HERE TO GO TO PREVIOUS BULLETINS.

The Nexlab TN Page
The Nexlab MS Page
The Nexlab AR Page Main Text Page